WE3C Weather Reports


time (UTC)temp
F
wind
direction
speed
knots
gust
knots
rain 1hr
in
rain 24hr
in
rain mn
in
humidity
%
barometer
mb
20260506144528 59 161 0.0 0.0 0.00 0.00 0.00 72 1012.9
20260506143024 59 360 0.0 0.0 0.00 0.00 0.00 73 1012.9
20260506141529 59 360 0.0 0.0 0.00 0.00 0.00 75 1012.8
20260506140022 59 360 0.0 0.0 0.00 0.00 0.00 76 1013.0
20260506134517 60 190 0.0 0.0 0.00 0.00 0.00 77 1013.0
20260506133011 60 182 0.0 0.0 0.00 0.00 0.00 78 1013.0
20260506131512 60 360 0.0 0.0 0.00 0.00 0.00 79 1013.2
20260506130009 60 183 0.0 0.0 0.00 0.00 0.00 79 1013.2
20260506124508 60 360 0.0 0.0 0.00 0.00 0.00 79 1013.3
20260506123007 61 360 0.0 0.0 0.00 0.00 0.00 79 1013.5
20260506121508 62 184 0.0 0.0 0.00 0.00 0.00 79 1013.1
20260506120004 62 188 0.0 0.0 0.00 0.00 0.00 78 1013.0
20260506114559 63 360 0.0 0.0 0.00 0.00 0.00 77 1012.9
20260506113059 63 186 0.0 0.0 0.00 0.00 0.00 76 1012.8
20260506111557 63 360 0.0 0.0 0.00 0.00 0.00 75 1012.8
20260506110112 63 360 0.0 0.0 0.00 0.00 0.00 75 1012.8
20260506104611 63 360 0.0 0.0 0.00 0.00 0.00 75 1012.5
20260506103053 63 360 0.0 0.0 0.00 0.00 0.00 74 1012.5
20260506101553 64 169 0.0 0.0 0.00 0.00 0.00 73 1012.4
20260506100101 64 171 0.0 0.0 0.00 0.00 0.00 73 1012.5
20260506094555 64 182 0.0 0.0 0.00 0.00 0.00 72 1012.6
20260506093047 64 140 0.0 0.0 0.00 0.00 0.00 71 1012.5
20260506091546 65 158 0.0 0.0 0.00 0.00 0.00 70 1012.5
20260506090044 65 185 0.0 0.0 0.00 0.00 0.00 69 1012.4
20260506084613 65 360 0.0 0.0 0.00 0.00 0.00 68 1012.6
20260506083043 65 360 0.0 0.0 0.00 0.00 0.00 67 1012.6
20260506081550 65 171 0.0 0.0 0.00 0.00 0.00 66 1012.6
20260506073034 66 191 0.0 0.0 0.00 0.00 0.00 63 1012.7
20260506071534 66 360 0.0 0.0 0.00 0.00 0.00 62 1012.8
20260506070130 67 163 0.0 0.0 0.00 0.00 0.00 61 1013.0
20260506061521 67 198 0.0 0.0 0.00 0.00 0.00 58 1013.6
20260506044519 68 360 0.0 0.0 0.00 0.00 0.00 54 1014.2
20260506043014 68 191 0.0 0.0 0.00 0.00 0.00 53 1014.2
20260506041512 68 360 0.0 0.0 0.00 0.00 0.00 52 1014.2
20260506040011 68 202 0.0 0.0 0.00 0.00 0.00 52 1014.3
20260506034511 68 193 0.0 0.0 0.00 0.00 0.00 51 1014.0
20260506033012 68 170 0.0 0.0 0.00 0.00 0.00 52 1014.1
20260506031509 68 186 0.0 0.0 0.00 0.00 0.00 52 1014.1
20260506030008 68 360 0.0 0.0 0.00 0.00 0.00 52 1014.1
20260506024510 69 360 0.0 0.0 0.00 0.00 0.00 51 1014.0
20260506023008 69 156 0.0 0.0 0.00 0.00 0.00 51 1014.2
20260506021506 69 155 0.0 0.0 0.00 0.00 0.00 50 1014.4
20260506020005 70 360 0.0 0.0 0.00 0.00 0.00 49 1014.2
20260506014505 70 185 0.0 0.0 0.00 0.00 0.00 48 1014.1
20260506013005 71 167 0.0 0.0 0.00 0.00 0.00 47 1013.9
20260506011506 72 172 0.0 0.0 0.00 0.00 0.00 44 1013.7
20260506010004 73 167 0.0 0.0 0.00 0.00 0.00 42 1013.5
20260506004604 73 191 0.0 0.0 0.00 0.00 0.00 40 1013.3
20260506003024 73 198 0.0 0.0 0.00 0.00 0.00 41 1013.3
20260506001524 73 360 0.0 0.0 0.00 0.00 0.00 41 1013.1
20260506000024 74 172 0.0 0.0 0.00 0.00 0.00 42 1012.9
20260505234524 74 184 0.0 0.0 0.00 0.00 0.00 42 1012.9
20260505233022 75 167 0.0 0.0 0.00 0.00 0.00 41 1012.8
20260505231535 75 186 0.0 0.0 0.00 0.00 0.00 39 1012.8
20260505230025 76 162 0.0 0.0 0.00 0.00 0.00 38 1012.7
20260505224520 76 184 0.0 0.0 0.00 0.00 0.00 37 1012.9
20260505223019 76 173 0.0 0.0 0.00 0.00 0.00 37 1012.4
20260505221519 77 191 0.0 0.0 0.00 0.00 0.00 36 1012.6
20260505220023 78 156 0.0 0.0 0.00 0.00 0.00 36 1012.3
20260505214518 78 160 0.0 0.0 0.00 0.00 0.00 37 1012.4
20260505213027 78 192 0.0 0.0 0.00 0.00 0.00 36 1012.5
20260505211517 79 179 0.0 0.0 0.00 0.00 0.00 36 1012.4
20260505210017 79 200 0.0 0.0 0.00 0.00 0.00 37 1012.3
20260505204515 79 190 0.0 0.0 0.00 0.00 0.00 36 1012.2
20260505203012 79 153 0.0 0.0 0.00 0.00 0.00 35 1012.2
20260505201512 80 199 0.0 0.0 0.00 0.00 0.00 36 1012.7
20260505200010 80 360 0.0 0.0 0.00 0.00 0.00 37 1012.6
20260505194504 80 200 0.0 0.0 0.00 0.00 0.00 36 1012.7
20260505193003 80 222 0.0 0.0 0.00 0.00 0.00 36 1012.8
20260505191501 80 360 0.0 0.0 0.00 0.00 0.00 38 1012.8
20260505184559 79 205 0.0 0.0 0.00 0.00 0.00 41 1013.1
20260505183101 79 360 0.0 0.0 0.00 0.00 0.00 40 1013.2
20260505181555 80 193 0.0 0.0 0.00 0.00 0.00 35 1013.4
20260505180100 79 216 0.0 0.0 0.00 0.00 0.00 34 1013.6
20260505174554 79 223 0.0 0.0 0.00 0.00 0.00 36 1013.7
20260505173056 79 184 0.0 0.0 0.00 0.00 0.00 35 1014.0
20260505171550 79 209 0.0 0.0 0.00 0.00 0.00 35 1014.1
20260505170103 79 236 0.0 0.0 0.00 0.00 0.00 39 1014.3
20260505164544 79 198 0.0 0.0 0.00 0.00 0.00 39 1014.6
20260505163043 78 208 0.0 0.0 0.00 0.00 0.00 39 1014.7
20260505161537 78 188 0.0 0.0 0.00 0.00 0.00 41 1014.7
20260505153022 75 360 0.0 0.0 0.00 0.00 0.00 46 1014.9
20260505151520 74 221 0.0 0.0 0.00 0.00 0.00 47 1015.0